Flag for Mauritania Weather past 2 weeks in Nouakchott, Mauritania

Now
66 °F

Clear.


Feels Like: 66 °F
Forecast: 64 / 87 °F
Wind: 8 mph from North

Location: Nouakchott Airport

Current Time: Mar 5, 2015 at 4:18:18 AM

Latest Report: Mar 5, 2015 at 3:30 AM


Visibility: 5 mi

Pressure: 29.86 "Hg

Humidity: 73%

Dew point: 57 °F

Location of NouakchottLocation

Historic Weather in Nouakchott — Graph

°F

Nouakchott temperature yesterday

Maximum temperature yesterday: 93 °F (at 2:00 PM)
Minimum temperature yesterday: 61 °F (at 6:00 AM)
Average temperature yesterday: 76 °F

Past Weeks' High & Low Weather Summary

 TemperatureHumidityPressure
High95 °F (Feb 25, 3:00 PM)83% (Feb 23, 1:30 AM)30.12 "Hg (Feb 23, 1:30 AM)
Low55 °F (Mar 1, 7:00 AM)5% (Feb 25, 3:00 PM)29.80 "Hg (Mar 4, 4:00 PM)
Average74 °F26%29.97 "Hg
* Reported Feb 18 2:00 AM — Mar 5 2:00 AM, Nouakchott, Weather by CustomWeather, © 2015

Note: Actual official high and low records may vary slightly from our data, if they occured in-between our weather recording intervals... More about our weather records

Advertising

Nouakchott weather history for previous 24 hours

 ConditionsComfort  
Time TempWeatherWind HumidityBarometerVisibility
2:00 AM
Thu, Mar 5
66 °FClear.8 mph73%29.89 "Hg5 mi
1:30 AM68 °FClear.7 mph64%29.89 "Hg5 mi
1:00 AM68 °FClear.8 mph64%29.89 "Hg5 mi
12:30 AM68 °FClear.9 mph60%29.92 "Hg5 mi
12:00 AM70 °FClear.12 mph53%29.92 "Hg6 mi
11:30 PM
Wed, Mar 4
70 °FClear.10 mph50%29.92 "Hg4 mi
11:00 PM72 °FClear.10 mph41%29.92 "Hg4 mi
10:00 PM73 °FClear.9 mph31%29.92 "Hg4 mi
9:30 PM72 °FClear.8 mph38%29.89 "Hg4 mi
9:00 PM72 °FDuststorm.9 mph41%29.89 "Hg3 mi
8:30 PM73 °FDuststorm.8 mph38%29.86 "Hg3 mi
8:00 PM73 °FDuststorm.10 mph36%29.86 "Hg2 mi
7:30 PM75 °FDuststorm.12 mph31%29.86 "Hg2 mi
7:00 PM77 °FDuststorm.13 mph28%29.83 "Hg2 mi
6:30 PM81 °FDuststorm.12 mph20%29.83 "Hg2 mi
6:00 PM82 °FDuststorm.12 mph19%29.83 "Hg2 mi
5:30 PM86 °FDuststorm.10 mph14%29.80 "Hg2 mi
5:00 PM88 °FDuststorm.9 mph15%29.80 "Hg3 mi
4:30 PM90 °FDuststorm.10 mph12%29.80 "Hg3 mi
4:00 PM91 °FDuststorm.10 mph8%29.80 "Hg3 mi
3:30 PM93 °FDuststorm.7 mph7%29.83 "Hg3 mi
3:00 PM93 °FDuststorm.3 mph5%29.83 "Hg3 mi
2:30 PM93 °FDuststorm.6 mph6%29.83 "Hg3 mi
2:00 PM93 °FDuststorm.2 mph6%29.86 "Hg3 mi
1:30 PM91 °FDuststorm.7 mph6%29.86 "Hg3 mi
1:00 PM90 °FDuststorm.7 mph7%29.89 "Hg2 mi
12:30 PM88 °FDuststorm.8 mph7%29.89 "Hg2 mi
12:00 PM86 °FDuststorm.10 mph8%29.92 "Hg2 mi
11:30 AM84 °FDuststorm.10 mph9%29.92 "Hg2 mi
11:00 AM82 °FDuststorm.13 mph9%29.92 "Hg2 mi
10:30 AM79 °FDuststorm.13 mph10%29.92 "Hg2 mi
10:00 AM75 °FDuststorm.14 mph12%29.92 "Hg2 mi
9:30 AM72 °FDuststorm.13 mph14%29.92 "Hg2 mi
9:00 AM68 °FDuststorm.10 mph14%29.92 "Hg2 mi
8:31 AM66 °FDuststorm.8 mph15%29.92 "Hg2 mi
8:00 AM63 °FDuststorm.9 mph17%29.89 "Hg2 mi
7:30 AM61 °FDuststorm.8 mph17%29.89 "Hg2 mi
7:00 AM63 °FClear.7 mph17%29.89 "Hg4 mi
6:30 AM63 °FClear.7 mph17%29.89 "Hg4 mi
6:00 AM61 °FClear.6 mph19%29.89 "Hg4 mi
5:30 AM63 °FClear.6 mph19%29.89 "Hg4 mi
5:00 AM64 °FClear.7 mph16%29.89 "Hg4 mi
4:30 AM64 °FClear.7 mph16%29.89 "Hg4 mi
4:00 AM66 °FClear.7 mph15%29.89 "Hg4 mi
Weather by CustomWeather, © 2015

See weather overviewHow to use our weather pages